Location: West Sayville
(40.7279°N, 73.0976°W)
Time: 09:50:28
(UTC+00:00)

MOS 1 Rocket - Pass Details

Date: 29 October 2020
Orbit: 615 x 829 km, 97.4° (Epoch: 23 November)

Event Time Altitude Azimuth Distance (km) Brightness Sun altitude
Rises 23:01:40 0° 22° (NNE) 3,075 6.3 -13.8°
Reaches altitude 10° 23:04:05 10° 32° (NNE) 2,188 5.5 -14.2°
Maximum altitude 23:08:26 33° 97° (E) 1,225 4.0 -15.1°
Drops below altitude 10° 23:12:58 10° 160° (SSE) 2,298 5.8 -15.9°
Sets 23:15:33 0° 170° (S) 3,253 6.7 -16.4°
